[[{"header":{"parameterUnit":"m.s-1","parameterCategory":1,"la1":30.2992,"la2":30.254,"lo1":-89.0895,"lo2":-89.0443,"dy":0.0025,"dx":0.0025,"nx":19,"ny":19,"refTime":"2026-03-11T21:00:00:Z","depth":0,"parameterNumber":2,"parameterNumberName":"U-component_of_WINDS"},"data":[0,0,0,7.086,7.0865,7.1111,7.1112,7.1427,7.1429,0,0,0,0,0,0,0,0,0,0,0,7.0787,7.0789,7.0859,7.0866,7.1111,7.1112,7.1426,7.1429,0,0,0,0,0,0,0,0,0,0,0,7.0786,7.0788,7.0791,7.0866,7.111,7.1112,7.1425,7.124,0,0,0,0,0,0,0,0,0,0,7.1002,7.0934,7.0788,7.0791,7.0868,7.111,7.1112,7.1231,7.1252,7.1315,0,7.1371,0,7.1405,7.145,7.1451,0,0,0,7.0866,7.0917,7.0983,7.0791,7.087,7.111,7.1,7.1243,7.1266,7.1343,7.1376,7.1387,7.141,7.1452,7.1454,7.1817,7.1818,0,0,7.0853,7.0831,7.0967,7.0998,7.0959,7.0992,7.1008,7.1257,7.1292,7.1377,7.1395,7.1416,7.1455,7.1457,7.1815,7.1817,0,0,0,7.0813,7.0822,7.0882,7.0985,7.1029,7.0999,7.1017,7.1281,7.1302,7.1398,7.1419,7.1456,7.146,7.1813,7.1816,7.1876,0,0,0,7.0805,7.0799,7.0876,7.0865,7.1024,7.1158,7.1036,7.1285,7.1313,7.1418,7.1456,7.1463,7.1812,7.1815,7.1871,7.1909,0,0,0,7.0771,7.0795,7.083,7.0863,7.0968,7.1154,7.119,7.1291,7.1327,7.1452,7.1464,7.181,7.1814,7.1866,7.1901,7.1998,0,0,0,7.0728,7.0881,7.083,7.1009,7.0966,7.1189,7.1188,7.1357,7.1471,7.1458,7.1812,7.1816,7.1864,7.1896,7.1992,7.2075,7.2107,0,0,7.0909,7.0902,7.1009,7.0971,7.1197,7.1154,7.139,7.1516,7.1549,7.1726,7.1735,7.1873,7.19,7.1996,7.2297,7.2323,0,0,0,7.1059,7.1135,7.12,7.1307,7.1406,7.1495,7.1587,7.1633,7.1785,7.1635,7.1935,7.1952,7.2009,7.205,7.2072,7.2122,7.1834,7.1833,7.1833,7.1284,7.1315,7.1494,7.1556,7.166,7.1753,7.1841,7.192,7.1923,7.1993,7.2046,7.2224,7.2271,7.2287,7.234,7.2092,7.2093,7.2093,7.2093,7.1551,7.1664,7.1663,7.1836,7.1869,7.2016,7.2111,7.2108,7.225,7.2187,7.2239,7.2168,7.2314,7.2362,7.2098,7.2097,7.2096,7.2096,7.2096,7.1701,7.1761,7.1815,7.1973,7.2091,7.2149,7.2284,7.231,7.2336,7.2387,7.2446,7.2445,7.2447,7.2413,7.2414,7.2414,7.2415,7.2415,7.2416,7.1836,7.1895,7.2005,7.2122,7.2194,7.2293,7.2387,7.2459,7.2546,7.2554,7.2555,7.255,7.2322,7.2264,7.2426,7.2424,7.2423,7.2422,7.2421,7.2096,7.2041,7.2211,7.2283,7.2423,7.2539,7.257,7.2714,7.2778,7.2844,7.2829,7.2656,7.2651,7.2634,7.2586,7.2821,7.2821,7.2821,7.2821,7.2222,7.2222,7.2402,7.2515,7.2629,7.2674,7.2866,7.2941,7.301,7.3052,7.3022,7.296,7.2942,7.2948,7.2924,7.288,7.3185,7.3185,7.3185,7.2383,7.2395,7.2553,7.2619,7.273,7.2825,7.3006,7.3137,7.3204,7.3201,7.3085,7.3069,7.2971,7.2937,7.293,7.2893,7.2812,0,0]},{"header":{"parameterUnit":"m.s-1","parameterCategory":1,"la1":30.2992,"la2":30.254,"lo1":-89.0895,"lo2":-89.0443,"dy":0.0025,"dx":0.0025,"nx":19,"ny":19,"refTime":"2026-03-11T21:00:00:Z","depth":0,"parameterNumber":3,"parameterNumberName":"V-component_of_WINDS"},"data":[0,0,0,1.2954,1.2969,1.3704,1.3707,1.46,1.4607,0,0,0,0,0,0,0,0,0,0,0,1.2705,1.2709,1.2953,1.2971,1.3704,1.3708,1.4598,1.4607,0,0,0,0,0,0,0,0,0,0,0,1.2702,1.2708,1.2714,1.2973,1.3703,1.3708,1.4596,1.406,0,0,0,0,0,0,0,0,0,0,1.3355,1.3093,1.2707,1.2715,1.2977,1.3702,1.3708,1.4035,1.4094,1.4245,0,1.4368,0,1.4501,1.4663,1.4666,0,0,0,1.2996,1.3044,1.327,1.2715,1.2983,1.3701,1.338,1.4069,1.4134,1.4322,1.4382,1.4416,1.4516,1.4669,1.4673,1.5448,1.545,0,0,1.2956,1.2822,1.3224,1.3311,1.319,1.3357,1.3403,1.4109,1.4167,1.4385,1.4438,1.453,1.4675,1.4681,1.5446,1.5448,0,0,0,1.2822,1.2792,1.3002,1.3273,1.3408,1.3377,1.3431,1.4136,1.4215,1.4448,1.4541,1.4679,1.469,1.5443,1.5447,1.5432,0,0,0,1.2799,1.2714,1.2983,1.2908,1.3394,1.3781,1.3439,1.4166,1.425,1.4536,1.468,1.4698,1.5441,1.5445,1.5427,1.545,0,0,0,1.2668,1.2699,1.2794,1.2899,1.3209,1.3772,1.3893,1.4187,1.4305,1.4667,1.47,1.5439,1.5444,1.5423,1.5443,1.5612,0,0,0,1.2492,1.2776,1.2791,1.3145,1.3202,1.3755,1.389,1.4311,1.4619,1.4684,1.5441,1.5446,1.5421,1.5439,1.5606,1.5731,1.5769,0,0,1.2776,1.2806,1.3024,1.3059,1.3573,1.3654,1.417,1.4583,1.4744,1.5205,1.5226,1.5429,1.5443,1.5611,1.6031,1.606,0,0,0,1.3069,1.3224,1.339,1.3673,1.3989,1.4264,1.461,1.4762,1.5158,1.4951,1.554,1.5552,1.5657,1.5723,1.5748,1.5846,1.547,1.547,1.5469,1.3284,1.3465,1.3838,1.4107,1.438,1.4729,1.4969,1.5234,1.5346,1.548,1.5619,1.5851,1.5922,1.5942,1.6042,1.5699,1.5699,1.5699,1.5699,1.3717,1.3965,1.4095,1.4503,1.4694,1.5042,1.5388,1.5453,1.5805,1.5763,1.5865,1.5803,1.5969,1.6066,1.57,1.57,1.5699,1.5699,1.5699,1.3879,1.4029,1.4203,1.4626,1.4932,1.5196,1.5524,1.5689,1.5847,1.5947,1.611,1.6111,1.6133,1.6012,1.6013,1.6014,1.6015,1.6015,1.6016,1.3978,1.4175,1.4429,1.4782,1.4981,1.5266,1.5614,1.5817,1.6085,1.6179,1.6181,1.6277,1.5949,1.5863,1.6029,1.6027,1.6025,1.6024,1.6023,1.4353,1.4292,1.4684,1.4883,1.5309,1.5599,1.5801,1.6199,1.6391,1.6547,1.6619,1.6349,1.6394,1.6376,1.6307,1.6578,1.6578,1.6578,1.6578,1.449,1.4524,1.496,1.5266,1.5586,1.5805,1.6244,1.6515,1.6788,1.6918,1.6902,1.6822,1.6795,1.6858,1.6828,1.6766,1.7149,1.7149,1.715,1.473,1.4802,1.5143,1.5401,1.5744,1.6035,1.6452,1.6801,1.7098,1.7176,1.7023,1.6999,1.6873,1.6823,1.6901,1.6852,1.6742,0,0]}]]